Weather in Aleksandro-Nevskiy

Russia / Chelyabinsk Oblast     53°22′51″N   59°44′11″E
temp.,
°C
wind,
m/s
gust,
m/s
humid.,
%
clouds,
%
prec.,
mm/h
press.,
hPa
HPBL,
m
11 may, tue
tue1123:00+12ese33570 0.0 102446
02:00+11e33660 0.0 102442
05:00+9ene12640 0.0 102610
08:00+13ne34490 0.0 1027283
11:00+17e33341 0.0 10271387
14:00+19e22275 0.0 10271804
17:00+20ese222495 0.0 10271834
20:00+18se113383 0.0 102711
12 may, wed
wed1223:00+14sse1136100 0.0 102810
02:00+12s223930 0.0 102910
05:00+11wsw1144100 0.0 103010
08:00+15sw224088 0.0 1030135
11:00+20sw22285 0.0 10291145
14:00+22sw22230 0.0 10291842
17:00+23sw32220 0.0 10281941
20:00+19sw3333100 0.0 102735
13 may, thu
thu1323:00+16wsw33374 0.0 102833
02:00+14w22435 0.0 102815
05:00+13nw22481 0.0 102811
08:00+18n23475 0.0 1028189
11:00+23nne33365 0.0 10271392
14:00+25nne223017 0.0 10272191
17:00+26nne122839 0.0 10262342
20:00+23sse11385 0.0 102611
14 may, fri
fri1423:00+19wsw12435 0.0 102611
02:00+17s114743 0.0 102711
05:00+16w11515 0.0 102711
08:00+20w22455 0.0 1028177
11:00+25sw23325 0.0 10271036
14:00+27wsw33260 0.0 10262534
17:00+27wsw34251 0.0 10252672
20:00+23w34360 0.0 102551
15 may, sat
sat1523:00+20wsw34371 0.0 102543
02:00+17nw23530 0.0 102531
05:00+16n33575 0.0 102629
08:00+21ne23464 0.0 1026251
11:00+25nne11340 0.0 10251054
14:00+27wsw23255 0.0 10232659
17:00+28wsw33235 0.0 10222925
20:00+24w22340 0.0 102219